Location: Sulphur Springs (historical)
(38.1246°N, 122.1900°W)
Time: 05:53:21
(UTC+00:00)

SL-19 R/B - Pass Details

Date: 29 October 2020
Orbit: 358 x 808 km, 99.4° (Epoch: 27 November)

Event Time Altitude Azimuth Distance (km) Brightness Sun altitude
Rises 13:33:38 0° 2° (N) 2,196 7.3 -12.1°
Reaches altitude 10° 13:35:39 10° 351° (N) 1,356 6.2 -11.7°
Maximum altitude 13:38:10 29° 288° (WNW) 728 4.4 -11.2°
Drops below altitude 10° 13:40:47 10° 226° (SW) 1,421 6.1 -10.7°
Sets 13:42:58 0° 215° (SW) 2,327 7.3 -10.3°
